Language: 


Des rapports , des résumés tant et plus, au choix de chacun....


Données statistiques de la station
Quotidien Rapport Juin 21, 2017 Unités:  Anglais    Métrique   les deux
« Précédent Jour
Suivant Jour »
Quotidien Hebdomadaire Mensuel Annuel Actuel
  Haut: Bas: Moyen:
Température: 99.1 °F 64.8 °F 82 °F
Pt de rosée: 69.8 °F 57.2 °F 63.7 °F
Humidité: 92 % 27 % 58 %
Vitesse du vent: 8.1 mph 0 mph 1.6 mph
Rafales: 9.6 mph - -
Vent:- - ESE
Pression: 30 in 29.9 in -
Précipitation: 0 in    
Historical Graphs
 
 
Données statistiques pour Juin 21, 2017
Heure Température Point de rosée Pression Vent Vitesse du vent Refales Humidité Pluie (taux horaire)
00:01 73 °F 62.6 °F 30 in NE 3.4 mph 8.1 mph 70 % 0 in
00:06 72.7 °F 64.4 °F 30 in Calm   6 mph 74 % 0 in
00:11 72.3 °F 64.4 °F 30 in Calm   5.4 mph 74 % 0 in
00:16 72.3 °F 64.4 °F 30 in NE 3.6 mph 3.8 mph 74 % 0 in
00:21 71.8 °F 64.4 °F 30 in NE 4 mph 4.7 mph 76 % 0 in
00:26 71.8 °F 64.4 °F 30 in NE 1.3 mph 4.7 mph 75 % 0 in
00:31 71.6 °F 64.4 °F 30 in NE 4.9 mph 4.9 mph 77 % 0 in
00:36 71.4 °F 64.4 °F 30 in NE 4.3 mph 5.8 mph 78 % 0 in
00:41 71.4 °F 64.4 °F 30 in NNE 3.6 mph 6.3 mph 79 % 0 in
00:46 71.2 °F 64.4 °F 30 in Calm   6.3 mph 79 % 0 in
00:51 71.1 °F 64.4 °F 30 in ENE 5.6 mph 5.6 mph 80 % 0 in
00:56 71.1 °F 64.4 °F 30 in NE 4.7 mph 5.6 mph 80 % 0 in
01:01 70.9 °F 64.4 °F 30 in Calm   5.4 mph 80 % 0 in
01:07 70.5 °F 64.4 °F 30 in Calm   3.8 mph 80 % 0 in
01:12 70.2 °F 64.4 °F 30 in Calm   5.6 mph 81 % 0 in
01:17 70 °F 64.4 °F 30 in Calm   5.6 mph 81 % 0 in
01:22 69.8 °F 64.4 °F 30 in Calm   4.3 mph 81 % 0 in
01:27 69.6 °F 64.4 °F 30 in Calm   2.9 mph 82 % 0 in
01:32 69.3 °F 64.4 °F 30 in NE 1.3 mph 3.1 mph 83 % 0 in
01:37 69.1 °F 64.4 °F 30 in Calm   3.1 mph 83 % 0 in
01:42 68.7 °F 62.6 °F 30 in Calm   3.1 mph 83 % 0 in
01:47 68.5 °F 64.4 °F 30 in Calm   4.9 mph 84 % 0 in
01:52 68.5 °F 64.4 °F 30 in Calm   4.9 mph 85 % 0 in
01:57 68.4 °F 64.4 °F 30 in Calm   3.8 mph 85 % 0 in
02:02 68.2 °F 64.4 °F 30 in Calm   3.4 mph 85 % 0 in
02:07 68.2 °F 64.4 °F 30 in Calm     85 % 0 in
02:12 67.8 °F 64.4 °F 30 in Calm     86 % 0 in
02:17 67.5 °F 62.6 °F 30 in Calm     86 % 0 in
02:22 67.3 °F 64.4 °F 30 in Calm     87 % 0 in
02:28 67.3 °F 64.4 °F 30 in Calm     87 % 0 in
02:33 67.1 °F 64.4 °F 30 in Calm     87 % 0 in
02:38 67.1 °F 64.4 °F 30 in Calm     87 % 0 in
02:43 66.9 °F 62.6 °F 30 in Calm   2.7 mph 88 % 0 in
02:48 66.9 °F 62.6 °F 30 in Calm   2.7 mph 88 % 0 in
02:53 66.7 °F 62.6 °F 30 in Calm     88 % 0 in
02:58 66.7 °F 64.4 °F 30 in Calm   2.7 mph 89 % 0 in
03:03 66.6 °F 64.4 °F 30 in NE 1.3 mph 3.1 mph 89 % 0 in
03:08 66.4 °F 62.6 °F 30 in Calm   3.1 mph 89 % 0 in
03:13 66.4 °F 62.6 °F 30 in Calm     89 % 0 in
03:18 66.4 °F 62.6 °F 30 in Calm     89 % 0 in
03:23 66.2 °F 62.6 °F 30 in Calm   3.4 mph 89 % 0 in
03:28 66.2 °F 62.6 °F 30 in North 2.9 mph 3.4 mph 89 % 0 in
03:33 66.2 °F 62.6 °F 30 in Calm   3.4 mph 90 % 0 in
03:38 66.2 °F 62.6 °F 30 in Calm   2.9 mph 90 % 0 in
03:39 66.2 °F 62.6 °F 30 in Calm   2.9 mph 90 % 0 in
03:44 66.2 °F 62.6 °F 30 in Calm   2.9 mph 90 % 0 in
03:49 66 °F 62.6 °F 30 in Calm     90 % 0 in
03:54 66 °F 62.6 °F 30 in Calm   2.7 mph 90 % 0 in
03:59 66 °F 64.4 °F 30 in NNE 1.6 mph 2.7 mph 91 % 0 in
04:04 65.8 °F 62.6 °F 30 in Calm   2.5 mph 90 % 0 in
04:09 65.8 °F 62.6 °F 30 in Calm   3.6 mph 91 % 0 in
04:14 65.7 °F 62.6 °F 30 in Calm   3.6 mph 91 % 0 in
04:19 65.7 °F 62.6 °F 30 in Calm   3.6 mph 91 % 0 in
04:24 65.5 °F 62.6 °F 30 in Calm   2.9 mph 91 % 0 in
04:29 65.3 °F 62.6 °F 30 in Calm   2.9 mph 91 % 0 in
04:35 65.1 °F 62.6 °F 30 in Calm   3.1 mph 91 % 0 in
04:40 64.9 °F 62.6 °F 30 in Calm   3.6 mph 91 % 0 in
04:45 64.8 °F 62.6 °F 30 in Calm   3.6 mph 91 % 0 in
04:50 64.8 °F 62.6 °F 30 in Calm   3.1 mph 91 % 0 in
04:53 64.9 °F 62.6 °F 30 in Calm   4.5 mph 91 % 0 in
04:58 65.1 °F 62.6 °F 30 in NE 2.5 mph 4.5 mph 91 % 0 in
05:03 65.1 °F 62.6 °F 30 in Calm   4.7 mph 91 % 0 in
05:08 65.5 °F 62.6 °F 30 in NE 3.4 mph 4.7 mph 92 % 0 in
05:13 65.7 °F 62.6 °F 30 in NE 4.9 mph 6.5 mph 92 % 0 in
05:18 65.8 °F 62.6 °F 30 in NE 4.3 mph 6.5 mph 92 % 0 in
05:23 66 °F 64.4 °F 30 in East 4 mph 5.4 mph 91 % 0 in
05:28 66.2 °F 64.4 °F 30 in ENE 5.8 mph 5.8 mph 91 % 0 in
05:33 66.2 °F 64.4 °F 30 in ENE 1.6 mph 5.8 mph 91 % 0 in
05:38 66.2 °F 64.4 °F 30 in Calm   5.6 mph 91 % 0 in
05:43 66.4 °F 62.6 °F 30 in Calm   5.4 mph 90 % 0 in
05:49 66.4 °F 62.6 °F 30 in Calm   5.4 mph 90 % 0 in
05:54 66.4 °F 62.6 °F 30 in Calm   5.6 mph 90 % 0 in
05:59 66.4 °F 62.6 °F 30 in East 2.9 mph 5.6 mph 90 % 0 in
06:04 66.6 °F 64.4 °F 30 in Calm   4.9 mph 90 % 0 in
06:08 66.7 °F 64.4 °F 30 in Calm   4.9 mph 90 % 0 in
06:14 66.7 °F 64.4 °F 30 in Calm   5.6 mph 90 % 0 in
06:19 66.9 °F 64.4 °F 30 in NE 1.6 mph 5.6 mph 89 % 0 in
06:24 67.1 °F 64.4 °F 30 in Calm   5.4 mph 89 % 0 in
06:29 67.3 °F 64.4 °F 30 in Calm   5.8 mph 89 % 0 in
06:34 67.3 °F 64.4 °F 30 in NE 1.6 mph 5.8 mph 89 % 0 in
06:39 67.5 °F 64.4 °F 30 in Calm   6.5 mph 88 % 0 in
06:44 67.6 °F 64.4 °F 30 in NE 4 mph 6.5 mph 88 % 0 in
06:49 67.8 °F 64.4 °F 30 in NE 4.3 mph 6 mph 88 % 0 in
06:54 68 °F 64.4 °F 30 in ENE 3.1 mph 6.3 mph 87 % 0 in
06:59 68.2 °F 64.4 °F 30 in East 3.6 mph 6.3 mph 87 % 0 in
07:04 68.4 °F 64.4 °F 30 in ENE 4.5 mph 6.3 mph 86 % 0 in
07:09 68.7 °F 64.4 °F 30 in NNE 4.7 mph 6.3 mph 86 % 0 in
07:14 69.1 °F 64.4 °F 30 in ENE 4.9 mph 6 mph 85 % 0 in
07:19 69.4 °F 64.4 °F 30 in Calm   6 mph 84 % 0 in
07:24 69.6 °F 64.4 °F 30 in ENE 3.1 mph 6.3 mph 84 % 0 in
07:30 69.8 °F 64.4 °F 30 in East 3.1 mph 7.2 mph 82 % 0 in
07:34 70.2 °F 64.4 °F 30 in East 2.9 mph 7.2 mph 82 % 0 in
07:40 70.3 °F 64.4 °F 30 in NE 4.3 mph 6.7 mph 81 % 0 in
07:45 70.9 °F 64.4 °F 30 in NE 3.8 mph 6.9 mph 81 % 0 in
07:50 71.1 °F 64.4 °F 30 in NE 3.1 mph 6.9 mph 80 % 0 in
07:55 71.2 °F 64.4 °F 30 in Calm   6.5 mph 80 % 0 in
08:00 71.8 °F 64.4 °F 30 in East 2.7 mph 5.8 mph 79 % 0 in
08:05 72.1 °F 66.2 °F 30 in NE 3.8 mph 5.8 mph 79 % 0 in
08:10 72.3 °F 64.4 °F 30 in East 3.1 mph 5.8 mph 78 % 0 in
08:15 73.2 °F 66.2 °F 30 in East 2.7 mph 5.4 mph 78 % 0 in
08:20 73.9 °F 66.2 °F 30 in Calm   4.9 mph 77 % 0 in
08:25 74.5 °F 66.2 °F 30 in ESE 4.5 mph 4.9 mph 76 % 0 in
08:30 74.8 °F 66.2 °F 30 in East 4.7 mph 6.5 mph 75 % 0 in
08:32 74.7 °F 66.2 °F 30 in ESE 2.9 mph 6.5 mph 74 % 0 in
08:37 74.8 °F 66.2 °F 30 in East 4 mph 6 mph 73 % 0 in
08:42 75 °F 66.2 °F 30 in ESE 3.6 mph 7.6 mph 72 % 0 in
08:47 75.2 °F 66.2 °F 30 in ENE 6.5 mph 7.6 mph 71 % 0 in
08:52 75.2 °F 66.2 °F 30 in ESE 6 mph 7.2 mph 71 % 0 in
08:57 75.9 °F 66.2 °F 30 in East 3.6 mph 6.5 mph 71 % 0 in
09:02 76.5 °F 66.2 °F 30 in ENE 2.7 mph 6.5 mph 71 % 0 in
09:07 76.8 °F 66.2 °F 30 in Calm   6.3 mph 69 % 0 in
09:12 77.4 °F 66.2 °F 30 in SE 0.9 mph 6 mph 69 % 0 in
09:17 77.7 °F 66.2 °F 30 in SE 4.5 mph 7.4 mph 68 % 0 in
09:22 78.1 °F 68 °F 30 in East 2.7 mph 7.4 mph 68 % 0 in
09:27 78.6 °F 68 °F 30 in SE 5.4 mph 7.4 mph 68 % 0 in
09:32 79 °F 68 °F 30 in Calm   5.8 mph 67 % 0 in
09:38 79.3 °F 68 °F 30 in Calm   5.8 mph 66 % 0 in
09:43 79.7 °F 68 °F 30 in ENE 5.8 mph 5.8 mph 65 % 0 in
09:48 79.9 °F 68 °F 30 in SE 1.6 mph 7.2 mph 65 % 0 in
09:53 80.2 °F 68 °F 30 in Calm   7.2 mph 65 % 0 in
09:58 80.6 °F 68 °F 30 in ESE 4.3 mph 5.4 mph 64 % 0 in
10:03 80.8 °F 68 °F 30 in Calm   6 mph 63 % 0 in
10:08 81 °F 68 °F 30 in Calm   6 mph 63 % 0 in
10:13 81.7 °F 68 °F 30 in Calm   6.9 mph 63 % 0 in
10:18 81.9 °F 68 °F 30 in East 5.6 mph 6.9 mph 61 % 0 in
10:23 82.4 °F 68 °F 30 in SE 4.3 mph 6.5 mph 62 % 0 in
10:28 82.8 °F 69.8 °F 30 in ESE 5.6 mph 6.5 mph 62 % 0 in
10:33 82.9 °F 68 °F 30 in NE 6.5 mph 6.5 mph 59 % 0 in
10:38 82.9 °F 68 °F 30 in ENE 3.4 mph 6.5 mph 60 % 0 in
10:43 83.3 °F 69.8 °F 30 in Calm   6.3 mph 60 % 0 in
10:48 83.7 °F 68 °F 30 in ESE 5.4 mph 5.6 mph 59 % 0 in
10:53 84.2 °F 69.8 °F 30 in Calm   5.6 mph 59 % 0 in
10:54 84.2 °F 69.8 °F 30 in Calm   5.6 mph 59 % 0 in
10:59 84.7 °F 68 °F 30 in Calm   4.7 mph 58 % 0 in
11:04 84.9 °F 68 °F 30 in ESE 4.9 mph 7.2 mph 57 % 0 in
11:09 85.1 °F 68 °F 30 in ENE 2.5 mph 7.2 mph 56 % 0 in
11:14 85.5 °F 68 °F 30 in Calm   5.8 mph 56 % 0 in
11:19 86.2 °F 68 °F 30 in East 3.4 mph 6.5 mph 55 % 0 in
11:24 86.5 °F 68 °F 30 in East 3.6 mph 6.5 mph 54 % 0 in
11:29 86.7 °F 68 °F 30 in Calm   5.4 mph 54 % 0 in
11:34 87.1 °F 68 °F 30 in ESE 2 mph 6 mph 52 % 0 in
11:39 87.8 °F 68 °F 30 in Calm   6 mph 52 % 0 in
11:44 87.8 °F 68 °F 30 in East 3.4 mph 5.8 mph 50 % 0 in
11:49 88 °F 68 °F 30 in East 6 mph 7.4 mph 50 % 0 in
11:54 88.5 °F 68 °F 30 in East 3.8 mph 7.4 mph 50 % 0 in
11:59 88.7 °F 68 °F 30 in Calm   6.3 mph 49 % 0 in
12:04 88.9 °F 68 °F 30 in East 4.3 mph 6.3 mph 48 % 0 in
12:09 89.4 °F 68 °F 30 in ENE 2.9 mph 6.5 mph 49 % 0 in
12:14 89.8 °F 68 °F 30 in ENE 4.3 mph 6.5 mph 47 % 0 in
12:19 90.1 °F 68 °F 29.9 in Calm   6.9 mph 47 % 0 in
12:24 90.3 °F 68 °F 29.9 in ENE 4.9 mph 6.9 mph 46 % 0 in
12:29 90.3 °F 68 °F 29.9 in ESE 3.4 mph 8.1 mph 46 % 0 in
12:34 90.7 °F 68 °F 29.9 in ESE 4.5 mph 8.1 mph 46 % 0 in
12:39 91.2 °F 68 °F 29.9 in East 5.8 mph 7.8 mph 45 % 0 in
12:44 91.4 °F 68 °F 29.9 in ENE 0.9 mph 7.8 mph 44 % 0 in
12:49 91.8 °F 66.2 °F 29.9 in Calm   5.4 mph 43 % 0 in
12:54 92.3 °F 68 °F 29.9 in Calm   5.4 mph 44 % 0 in
12:59 92.3 °F 66.2 °F 29.9 in ESE 2.9 mph 6 mph 41 % 0 in
13:04 92.7 °F 66.2 °F 30 in Calm   7.6 mph 41 % 0 in
13:09 92.8 °F 64.4 °F 30 in SE 7.4 mph 8.1 mph 39 % 0 in
13:14 93.4 °F 66.2 °F 30 in ESE 6.5 mph 8.9 mph 40 % 0 in
13:19 93.7 °F 66.2 °F 29.9 in East 3.1 mph 8.9 mph 39 % 0 in
13:25 94.3 °F 66.2 °F 29.9 in Calm   8.9 mph 39 % 0 in
13:30 94.8 °F 66.2 °F 29.9 in Calm   7.4 mph 39 % 0 in
13:35 95 °F 64.4 °F 29.9 in ENE 7.4 mph 7.6 mph 37 % 0 in
13:40 94.5 °F 64.4 °F 29.9 in ENE 4.9 mph 7.6 mph 36 % 0 in
13:45 94.6 °F 64.4 °F 29.9 in Calm   6.5 mph 37 % 0 in
13:50 94.8 °F 64.4 °F 30 in East 6.3 mph 8.7 mph 36 % 0 in
13:55 95 °F 62.6 °F 30 in Calm   8.7 mph 35 % 0 in
14:00 95.9 °F 64.4 °F 30 in Calm   8.5 mph 35 % 0 in
14:05 96.1 °F 64.4 °F 30 in ENE 5.4 mph 6.5 mph 34 % 0 in
14:10 95.7 °F 62.6 °F 30 in ENE 5.4 mph 6.5 mph 33 % 0 in
14:15 96.1 °F 64.4 °F 30 in Calm   6.5 mph 34 % 0 in
14:20 96.1 °F 64.4 °F 30 in SE 6.3 mph 6.3 mph 34 % 0 in
14:25 96.1 °F 62.6 °F 30 in Calm   8.5 mph 33 % 0 in
14:30 96.4 °F 64.4 °F 30 in NE 2.5 mph 8.5 mph 34 % 0 in
14:35 96.3 °F 62.6 °F 30 in SE 4.7 mph 9.6 mph 33 % 0 in
14:40 96.6 °F 64.4 °F 30 in ESE 5.8 mph 9.6 mph 33 % 0 in
14:45 97 °F 64.4 °F 30 in SE 1.1 mph 6.7 mph 33 % 0 in
14:50 97 °F 64.4 °F 30 in SSW 2.5 mph 5.8 mph 34 % 0 in
14:56 97.5 °F 64.4 °F 30 in SSE 8.1 mph 8.1 mph 33 % 0 in
15:01 97 °F 62.6 °F 29.9 in SSE 0.9 mph 8.1 mph 31 % 0 in
15:06 96.6 °F 62.6 °F 29.9 in SSE 7.4 mph 8.1 mph 31 % 0 in
15:11 97 °F 62.6 °F 29.9 in SSE 2.5 mph 7.4 mph 31 % 0 in
15:16 96.4 °F 60.8 °F 29.9 in East 4.9 mph 7.4 mph 30 % 0 in
15:21 96.3 °F 59 °F 29.9 in Calm   6.5 mph 29 % 0 in
15:26 95.9 °F 59 °F 29.9 in SSW 6.3 mph 6.5 mph 29 % 0 in
15:31 95.4 °F 59 °F 29.9 in WSW 5.6 mph 6.3 mph 29 % 0 in
15:36 95.2 °F 57.2 °F 29.9 in South 2.2 mph 6.3 mph 29 % 0 in
15:41 95.7 °F 59 °F 29.9 in East 4.3 mph 6.3 mph 30 % 0 in
15:46 96.4 °F 60.8 °F 29.9 in Calm   6.3 mph 31 % 0 in
15:51 96.4 °F 59 °F 29.9 in Calm   8.1 mph 29 % 0 in
15:56 96.8 °F 59 °F 29.9 in SSE 6.3 mph 8.1 mph 29 % 0 in
16:01 97 °F 59 °F 29.9 in Calm   6.5 mph 29 % 0 in
16:06 97 °F 60.8 °F 29.9 in WSW 0.9 mph 5.4 mph 30 % 0 in
16:12 96.4 °F 60.8 °F 29.9 in Calm   5.4 mph 30 % 0 in
16:17 97 °F 60.8 °F 29.9 in South 3.6 mph 5.4 mph 30 % 0 in
16:22 96.8 °F 59 °F 29.9 in Calm   4 mph 28 % 0 in
16:27 97.2 °F 59 °F 29.9 in Calm   6.5 mph 29 % 0 in
16:32 97.3 °F 59 °F 29.9 in SW 1.1 mph 6.5 mph 29 % 0 in
16:37 97.9 °F 59 °F 29.9 in Calm   4.9 mph 28 % 0 in
16:42 98.1 °F 60.8 °F 29.9 in SW 2 mph 4.3 mph 29 % 0 in
16:47 98.6 °F 60.8 °F 29.9 in Calm   4 mph 28 % 0 in
16:52 98.6 °F 60.8 °F 29.9 in Calm   3.6 mph 28 % 0 in
16:53 98.6 °F 60.8 °F 29.9 in Calm   3.6 mph 28 % 0 in
16:58 98.4 °F 60.8 °F 29.9 in East 3.1 mph 4.9 mph 29 % 0 in
17:03 98.2 °F 59 °F 29.9 in SE 4.9 mph 5.4 mph 28 % 0 in
17:08 98.4 °F 59 °F 29.9 in SSE 2.5 mph 5.4 mph 28 % 0 in
17:13 98.6 °F 60.8 °F 29.9 in Calm   4.9 mph 28 % 0 in
17:18 99 °F 59 °F 29.9 in Calm   4.3 mph 27 % 0 in
17:23 99.1 °F 59 °F 29.9 in Calm   2 mph 27 % 0 in
17:28 99 °F 59 °F 29.9 in SSE 4 mph 4.7 mph 27 % 0 in
17:33 99 °F 60.8 °F 29.9 in SSE 2.7 mph 5.4 mph 28 % 0 in
17:38 97.3 °F 59 °F 29.9 in ESE 0.9 mph 5.6 mph 29 % 0 in
17:43 97.9 °F 60.8 °F 29.9 in Calm   5.6 mph 29 % 0 in
17:48 98.1 °F 60.8 °F 29.9 in Calm   2.2 mph 29 % 0 in
17:53 98.2 °F 60.8 °F 29.9 in ESE 3.6 mph 4.3 mph 30 % 0 in
17:58 97.9 °F 60.8 °F 29.9 in SSW 4 mph 4.3 mph 29 % 0 in
18:03 98.2 °F 60.8 °F 29.9 in Calm   4.9 mph 30 % 0 in
18:08 98.6 °F 62.6 °F 29.9 in Calm   4.9 mph 30 % 0 in
18:13 98.6 °F 62.6 °F 29.9 in Calm   4.9 mph 30 % 0 in
18:18 98.1 °F 60.8 °F 29.9 in Calm   5.6 mph 30 % 0 in
18:24 97.9 °F 60.8 °F 29.9 in Calm   5.6 mph 30 % 0 in
18:29 98.1 °F 60.8 °F 29.9 in SSW 1.1 mph 3.4 mph 30 % 0 in
18:34 98.4 °F 60.8 °F 29.9 in Calm   1.1 mph 29 % 0 in
18:39 98.4 °F 60.8 °F 29.9 in Calm   2.5 mph 29 % 0 in
18:44 98.1 °F 60.8 °F 29.9 in SE 4 mph 4.9 mph 29 % 0 in
18:49 97.7 °F 60.8 °F 29.9 in Calm   4.9 mph 29 % 0 in
18:54 97.7 °F 60.8 °F 29.9 in Calm   4 mph 29 % 0 in
18:59 97 °F 59 °F 29.9 in Calm   4 mph 29 % 0 in
19:04 96.8 °F 59 °F 29.9 in SSE 1.1 mph 4 mph 29 % 0 in
19:09 96.6 °F 59 °F 29.9 in Calm   6.3 mph 29 % 0 in
19:14 96.4 °F 60.8 °F 29.9 in Calm   6.3 mph 30 % 0 in
19:19 96.4 °F 60.8 °F 29.9 in SE 1.3 mph 4.3 mph 30 % 0 in
19:24 96.1 °F 60.8 °F 29.9 in Calm   4.3 mph 30 % 0 in
19:29 95.9 °F 60.8 °F 29.9 in Calm   5.8 mph 31 % 0 in
19:34 95.7 °F 59 °F 29.9 in Calm   5.8 mph 30 % 0 in
19:39 95.7 °F 59 °F 29.9 in SSW 0.9 mph 3.1 mph 30 % 0 in
19:44 95.9 °F 60.8 °F 29.9 in SE 0.9 mph 3.8 mph 31 % 0 in
19:49 95.7 °F 60.8 °F 29.9 in South 2.7 mph 3.8 mph 31 % 0 in
19:54 95.2 °F 60.8 °F 29.9 in Calm   4.7 mph 31 % 0 in
19:59 95 °F 60.8 °F 29.9 in Calm   4.7 mph 32 % 0 in
20:05 94.6 °F 60.8 °F 29.9 in Calm   3.1 mph 32 % 0 in
20:10 94.6 °F 60.8 °F 29.9 in Calm   1.6 mph 33 % 0 in
20:15 94.5 °F 60.8 °F 29.9 in Calm     33 % 0 in
20:20 93.9 °F 59 °F 29.9 in Calm   1.1 mph 32 % 0 in
20:25 93.4 °F 60.8 °F 29.9 in Calm   3.6 mph 33 % 0 in
20:30 92.8 °F 60.8 °F 29.9 in Calm   3.6 mph 34 % 0 in
20:35 92.5 °F 60.8 °F 29.9 in Calm     35 % 0 in
20:40 91.9 °F 60.8 °F 29.9 in Calm     35 % 0 in
20:45 91.6 °F 60.8 °F 29.9 in Calm     36 % 0 in
20:50 91 °F 62.6 °F 29.9 in Calm     38 % 0 in
20:55 90.3 °F 62.6 °F 29.9 in Calm     39 % 0 in
21:00 89.6 °F 62.6 °F 29.9 in Calm     40 % 0 in
21:05 89.1 °F 62.6 °F 29.9 in Calm     41 % 0 in
21:10 88.5 °F 62.6 °F 29.9 in Calm     42 % 0 in
21:15 87.8 °F 62.6 °F 29.9 in Calm     43 % 0 in
21:20 87.1 °F 62.6 °F 29.9 in Calm     44 % 0 in
21:21 87.1 °F 62.6 °F 29.9 in Calm     44 % 0 in
21:26 86.5 °F 62.6 °F 29.9 in Calm     45 % 0 in
21:31 86 °F 62.6 °F 29.9 in Calm     46 % 0 in
21:36 85.3 °F 62.6 °F 29.9 in Calm     47 % 0 in
21:41 84.6 °F 62.6 °F 29.9 in Calm     48 % 0 in
21:46 84 °F 64.4 °F 29.9 in Calm   2.2 mph 49 % 0 in
21:51 83.5 °F 64.4 °F 29.9 in Calm   2.2 mph 50 % 0 in
21:56 82.8 °F 62.6 °F 29.9 in Calm   1.3 mph 50 % 0 in
22:01 82.4 °F 62.6 °F 29.9 in Calm   0.9 mph 51 % 0 in
22:06 82 °F 62.6 °F 29.9 in Calm   0.9 mph 52 % 0 in
22:11 81.5 °F 62.6 °F 29.9 in Calm     52 % 0 in
22:16 81.1 °F 64.4 °F 29.9 in Calm     54 % 0 in
22:21 80.8 °F 62.6 °F 29.9 in Calm   2 mph 54 % 0 in
22:26 80.8 °F 62.6 °F 29.9 in ESE 3.1 mph 3.1 mph 55 % 0 in
22:31 80.6 °F 62.6 °F 29.9 in Calm   3.1 mph 55 % 0 in
22:36 80.6 °F 62.6 °F 29.9 in Calm   2.5 mph 55 % 0 in
22:41 80.4 °F 64.4 °F 29.9 in ESE 3.8 mph 4 mph 56 % 0 in
22:46 80.4 °F 64.4 °F 29.9 in Calm   5.4 mph 56 % 0 in
22:51 80.4 °F 62.6 °F 29.9 in Calm   5.4 mph 55 % 0 in
22:57 80.2 °F 62.6 °F 29.9 in Calm   4.7 mph 56 % 0 in
23:02 80.1 °F 62.6 °F 29.9 in Calm   3.6 mph 56 % 0 in
23:07 79.9 °F 62.6 °F 29.9 in Calm   3.6 mph 56 % 0 in
23:12 79.5 °F 62.6 °F 29.9 in Calm   3.6 mph 56 % 0 in
23:17 79.3 °F 62.6 °F 29.9 in Calm   2.2 mph 56 % 0 in
23:22 79 °F 62.6 °F 29.9 in ESE 1.6 mph 2.2 mph 57 % 0 in
23:27 78.8 °F 62.6 °F 29.9 in Calm   2.2 mph 57 % 0 in
23:32 78.4 °F 62.6 °F 29.9 in Calm   1.6 mph 58 % 0 in
23:37 78.3 °F 62.6 °F 29.9 in Calm   2.9 mph 58 % 0 in
23:42 78.3 °F 62.6 °F 29.9 in Calm   2.9 mph 58 % 0 in
23:47 77.9 °F 64.4 °F 29.9 in Calm   1.6 mph 60 % 0 in
23:52 77.5 °F 62.6 °F 29.9 in Calm   1.6 mph 60 % 0 in
23:57 77.4 °F 62.6 °F 29.9 in Calm   1.1 mph 61 % 0 in
Le Gheer Warneton
Courtoisie de Weather Underground - 2.25 mb

Mise a jour : 17/12/2017 22:35:11
Généré par Cumulus 1.9.4 (1099)